CZ-3B R/B, 63525

Orbit data source: Space-Track

CZ-3B R/B, 63525 is space debris in HEO originally from a launch on Thu, 10 Apr 2025 UTC launched from the Xichang Space Center, China (XSC). Debris objects in space refer to the collection of defunct objects orbiting the Earth. Examples of debris include non-operational satellites, rocket bodies, and fragments generated from explosions, collisions, or faulty payload assembly.

Loading next visibility...
Identifier
63525, 2025-073B
Orbit
HEO
Country
Flag of CNCN / PRC
Related business
Manufacturer
CALT
Mission
Spacecraft
Bus & Motor
CZ-3A STAGE 3, Unknown motor
Mass
~2,800 kg wet, ~2,800 kg dry
Launch date (UTC)
2025-04-10 (7 months ago)
Launch vehicle
Unknown
Launch site
Xichang Space Center, China (XSC)
Object type
Payload
Rocket body
Debris
Shape & HBR
Cyl + 1 Nozzle, 5.2 m
Radar Cross Section
32.704 m², Large (>1 m²)

Expand to show TLE details & history
Last TLE update: 21 hours ago

TLE from 21 hours ago
0 CZ-3B R/B
1 63525U 25073B   25312.20806383  .00118352 -50375-6  18637-2 0  9995
2 63525  19.3647 344.6489 6606405  10.1736 358.5574  3.24146126  5670
Epoch: 2025-11-08T04:59Z
TLE epoch observation values (Epoch: 2025-11-08T04:59:36.714Z)
Latitude
-0.00006°
Longitude
-137.90144°
Altitude
211.26 km
Speed
10.015 km/s
True Right ascension
22h 58m 34s
True Declination
0° 00' 00"
Sunlit
Object was in full shadow at epoch
Visualization orbit readout
Latitude
Unknown
Longitude
Unknown
Altitude
Unknown
Speed
Unknown
Apparent Right ascension
Unknown
Apparent Declination
Unknown
Sunlit
N/A
Visualization observer readout
Local Sidereal Time
22:42:05
Azimuth
Unknown
Elevation
Unknown
Doppler factor
Unknown
Orbital elements
Apogee altitude
25,656.417 km
Perigee altitude
168.271 km
Semi-major axis
19,290.481 km
Eccentricity
0.66064
Inclination
19.3647°
RAAN
344.6489°
Arg. of periapsis
10.1736°
True anomaly
350.62976°
Mean anomaly
358.5574°
Eccentric anomaly
355.7566°
Mean motion
0.81008 °/min
Orbital period
444.4 mins
BSTAR
0.0018637
Loading maneuver chart data...
Computing Atmospheric mass density...
Loading historical data...
Loading historical data...
Loading historical data...
Loading historical data...
Loading historical data...
Loading historical data...
Loading historical data...
Other satellites on launch #73 in the year 2025 (2025-04-10 UTC)

Documentation

Showing up to 5 results
|